GEFSNE_prec_meanprecacc_276.txt.gz
Total_Precipitation_Accumulation
2.65 2.84 2.82 2.64 2.65 2.78 3.00 3.21 3.24 3.04 2.95 2.84 2.51 2.38 2.35 2.33 2.44 2.31 2.41 2.32 1.88 1.64 1.57 1.55 1.52 1.53 1.60 1.76 2.00 2.32 2.54 2.65 2.78 3.01 3.34 3.71 4.08 4.43
2.91 2.97 2.84 2.58 2.71 2.75 2.89 3.18 3.45 3.50 3.23 2.82 2.58 2.45 2.45 2.17 2.19 2.00 2.05 1.97 1.66 1.50 1.40 1.36 1.30 1.28 1.29 1.36 1.49 1.77 1.97 2.15 2.33 2.43 2.58 2.80 3.08 3.35
2.86 2.76 2.65 2.69 2.85 2.78 2.92 3.08 3.31 3.55 3.29 2.93 2.77 2.72 2.70 2.51 2.32 2.03 1.78 1.67 1.56 1.60 1.44 1.29 1.24 1.22 1.26 1.33 1.40 1.51 1.68 1.88 2.06 2.20 2.36 2.54 2.66 2.77
2.78 2.73 2.61 2.74 2.84 2.81 2.89 2.89 2.98 3.27 3.17 2.96 2.89 2.93 2.81 2.58 2.44 2.25 1.89 1.70 1.71 1.80 1.62 1.43 1.32 1.30 1.26 1.27 1.36 1.45 1.55 1.68 1.84 1.93 1.99 2.04 2.20 2.43
2.73 2.65 2.54 2.63 2.58 2.64 2.66 2.67 2.67 2.77 2.96 2.88 2.78 2.86 2.76 2.56 2.47 2.29 2.16 2.25 2.04 1.88 1.74 1.57 1.45 1.39 1.36 1.29 1.31 1.40 1.50 1.54 1.57 1.71 1.84 1.94 1.99 2.05
2.42 2.35 2.37 2.50 2.59 2.56 2.46 2.45 2.53 2.67 2.76 2.79 2.77 2.84 2.85 2.83 2.70 2.55 2.53 2.46 2.29 1.86 1.79 1.60 1.47 1.35 1.28 1.19 1.21 1.37 1.51 1.57 1.59 1.59 1.66 1.76 1.86 1.96
2.22 2.05 2.08 2.39 2.53 2.48 2.27 2.38 2.45 2.52 2.60 2.72 2.77 2.86 2.93 3.12 2.91 2.61 2.49 2.54 2.39 2.16 2.01 1.79 1.64 1.51 1.45 1.39 1.33 1.33 1.36 1.46 1.56 1.67 1.81 1.91 1.96 2.01
1.98 1.92 1.91 1.98 2.01 2.04 2.01 2.01 2.08 2.17 2.39 2.66 2.74 2.74 2.72 2.81 2.89 2.77 2.65 2.60 2.56 2.46 2.48 2.37 2.04 1.97 1.85 1.69 1.56 1.31 1.17 1.22 1.37 1.48 1.74 2.00 2.23 2.31
1.94 2.01 1.74 1.57 1.70 1.72 1.83 1.80 1.72 1.80 1.94 2.22 2.41 2.41 2.50 2.53 2.78 2.81 2.85 2.88 2.84 2.79 2.78 2.81 2.47 2.16 1.91 1.81 1.72 1.37 1.21 1.16 1.21 1.32 1.44 1.66 1.96 2.27
1.83 1.85 1.80 1.68 1.63 1.75 1.81 1.74 1.58 1.53 1.51 1.51 1.74 2.03 2.26 2.49 2.55 2.61 2.73 2.80 2.81 2.66 2.59 2.67 2.50 2.35 2.02 1.75 1.62 1.42 1.23 1.11 1.08 1.14 1.17 1.24 1.40 1.64
1.80 1.73 1.68 1.62 1.65 1.53 1.48 1.50 1.50 1.49 1.33 1.32 1.40 1.62 1.81 1.88 2.09 2.35 2.58 2.58 2.52 2.32 2.14 2.23 2.29 2.31 2.29 2.03 1.64 1.49 1.29 1.11 1.06 1.07 1.06 1.06 1.13 1.23
1.76 1.72 1.59 1.44 1.43 1.30 1.28 1.43 1.42 1.43 1.45 1.36 1.26 1.29 1.38 1.53 1.62 1.70 2.02 2.25 2.17 2.12 1.87 1.78 1.78 1.90 2.08 1.89 1.60 1.49 1.44 1.30 1.11 1.07 1.06 1.03 1.07 1.02
1.76 1.70 1.63 1.50 1.30 1.25 1.19 1.26 1.33 1.31 1.38 1.41 1.36 1.32 1.40 1.52 1.47 1.45 1.62 1.85 1.94 1.79 1.62 1.70 1.61 1.55 1.57 1.53 1.42 1.27 1.30 1.41 1.36 1.22 1.15 1.13 1.15 1.16
1.89 1.85 1.76 1.54 1.30 1.22 1.14 1.13 1.11 1.03 1.06 1.24 1.29 1.25 1.28 1.38 1.45 1.44 1.51 1.58 1.66 1.59 1.58 1.67 1.71 1.66 1.55 1.40 1.28 1.15 1.11 1.20 1.36 1.55 1.64 1.64 1.50 1.45
1.88 1.95 1.69 1.44 1.28 1.13 1.12 1.12 1.00 0.91 1.02 1.11 1.12 1.13 1.13 1.25 1.47 1.62 1.68 1.69 1.63 1.45 1.32 1.36 1.47 1.63 1.64 1.42 1.20 1.11 1.10 1.15 1.28 1.49 1.64 1.75 1.81 1.81
1.68 1.77 1.63 1.45 1.30 1.17 1.12 1.08 1.01 1.05 1.14 1.15 1.17 1.22 1.25 1.33 1.43 1.51 1.60 1.65 1.62 1.40 1.28 1.25 1.32 1.52 1.58 1.41 1.27 1.17 1.16 1.22 1.26 1.47 1.72 1.84 1.87 1.92
1.69 1.70 1.68 1.54 1.41 1.32 1.28 1.32 1.35 1.33 1.27 1.27 1.31 1.34 1.33 1.32 1.36 1.42 1.49 1.54 1.48 1.29 1.18 1.25 1.34 1.51 1.55 1.53 1.42 1.21 1.17 1.16 1.18 1.38 1.66 1.78 1.83 1.88
1.58 1.55 1.65 1.64 1.56 1.48 1.43 1.44 1.44 1.40 1.34 1.35 1.35 1.34 1.31 1.28 1.31 1.34 1.36 1.38 1.35 1.25 1.15 1.13 1.31 1.54 1.62 1.44 1.19 1.12 1.11 1.07 1.13 1.33 1.48 1.54 1.46 1.47
1.38 1.42 1.53 1.58 1.53 1.50 1.45 1.42 1.38 1.41 1.43 1.37 1.32 1.32 1.31 1.28 1.31 1.35 1.35 1.39 1.36 1.32 1.28 1.29 1.35 1.44 1.47 1.28 1.06 0.91 1.03 1.10 1.19 1.29 1.39 1.37 1.26 1.25
1.22 1.28 1.35 1.42 1.43 1.45 1.45 1.45 1.40 1.40 1.41 1.39 1.35 1.35 1.36 1.32 1.32 1.33 1.29 1.31 1.39 1.42 1.44 1.38 1.34 1.31 1.30 1.31 1.26 1.11 0.99 1.17 1.31 1.31 1.28 1.32 1.28 1.23
1.12 1.15 1.18 1.21 1.26 1.32 1.33 1.38 1.37 1.34 1.34 1.38 1.34 1.33 1.37 1.39 1.39 1.37 1.37 1.39 1.41 1.45 1.42 1.27 1.24 1.41 1.56 1.66 1.52 1.31 1.27 1.27 1.36 1.40 1.41 1.46 1.44 1.39
1.10 1.13 1.08 1.07 1.12 1.19 1.26 1.32 1.33 1.35 1.39 1.38 1.37 1.37 1.37 1.38 1.37 1.39 1.42 1.46 1.47 1.47 1.45 1.49 1.60 1.69 1.74 1.69 1.54 1.50 1.60 1.58 1.53 1.49 1.41 1.41 1.37 1.28
1.05 1.02 0.99 1.00 1.04 1.11 1.17 1.21 1.28 1.37 1.37 1.37 1.41 1.40 1.35 1.35 1.35 1.39 1.39 1.42 1.48 1.57 1.67 1.70 1.68 1.64 1.63 1.67 1.66 1.60 1.57 1.65 1.70 1.63 1.48 1.37 1.24 1.10

GEFSNE_prec_meanprecacc_282.txt.gz
Total_Precipitation_Accumulation
2.69 2.88 2.85 2.68 2.69 2.83 3.02 3.23 3.27 3.06 2.98 2.86 2.53 2.40 2.38 2.35 2.45 2.32 2.41 2.34 1.89 1.65 1.59 1.57 1.55 1.55 1.62 1.78 2.02 2.34 2.55 2.65 2.79 3.02 3.34 3.72 4.09 4.45
2.94 3.01 2.88 2.63 2.76 2.81 2.93 3.21 3.47 3.52 3.24 2.84 2.61 2.48 2.48 2.21 2.22 2.03 2.08 1.99 1.69 1.52 1.43 1.39 1.34 1.31 1.31 1.37 1.50 1.77 1.98 2.16 2.33 2.44 2.59 2.80 3.09 3.36
2.88 2.80 2.71 2.74 2.89 2.83 2.96 3.12 3.35 3.58 3.31 2.95 2.79 2.74 2.73 2.54 2.35 2.06 1.82 1.71 1.59 1.64 1.48 1.32 1.26 1.24 1.28 1.35 1.42 1.52 1.69 1.89 2.06 2.21 2.36 2.55 2.66 2.78
2.79 2.76 2.66 2.79 2.88 2.85 2.93 2.92 3.00 3.29 3.18 2.97 2.90 2.94 2.82 2.60 2.47 2.28 1.92 1.73 1.75 1.83 1.65 1.46 1.35 1.33 1.29 1.29 1.38 1.46 1.57 1.70 1.85 1.94 1.99 2.04 2.20 2.43
2.74 2.66 2.56 2.67 2.62 2.68 2.69 2.69 2.69 2.79 2.97 2.89 2.79 2.87 2.79 2.60 2.50 2.33 2.21 2.29 2.07 1.90 1.76 1.59 1.47 1.40 1.38 1.31 1.33 1.42 1.53 1.57 1.59 1.72 1.85 1.94 2.00 2.06
2.43 2.36 2.39 2.53 2.63 2.62 2.51 2.49 2.56 2.69 2.78 2.82 2.79 2.87 2.89 2.88 2.76 2.60 2.58 2.50 2.33 1.88 1.80 1.61 1.48 1.36 1.29 1.21 1.23 1.39 1.53 1.59 1.61 1.60 1.67 1.77 1.87 1.96
2.22 2.06 2.10 2.42 2.58 2.53 2.32 2.41 2.49 2.56 2.63 2.75 2.81 2.91 2.97 3.17 2.96 2.66 2.53 2.58 2.42 2.17 2.02 1.80 1.65 1.52 1.46 1.41 1.34 1.35 1.38 1.49 1.59 1.70 1.83 1.92 1.98 2.03
1.98 1.93 1.93 2.00 2.04 2.07 2.05 2.05 2.11 2.20 2.42 2.69 2.77 2.78 2.74 2.84 2.93 2.82 2.72 2.66 2.60 2.49 2.51 2.39 2.05 1.97 1.86 1.70 1.57 1.32 1.18 1.24 1.38 1.50 1.75 2.02 2.25 2.32
1.95 2.02 1.75 1.58 1.71 1.73 1.86 1.84 1.75 1.83 1.97 2.24 2.43 2.44 2.53 2.55 2.81 2.84 2.91 2.95 2.89 2.82 2.81 2.85 2.49 2.17 1.92 1.82 1.73 1.38 1.22 1.17 1.23 1.33 1.46 1.68 1.98 2.30
1.83 1.86 1.81 1.69 1.64 1.76 1.84 1.77 1.61 1.56 1.55 1.54 1.76 2.04 2.28 2.51 2.57 2.64 2.77 2.86 2.88 2.71 2.63 2.70 2.53 2.37 2.04 1.76 1.63 1.42 1.24 1.12 1.09 1.16 1.19 1.26 1.43 1.67
1.80 1.74 1.69 1.62 1.67 1.55 1.50 1.52 1.52 1.51 1.36 1.35 1.42 1.64 1.83 1.90 2.11 2.38 2.61 2.61 2.57 2.38 2.18 2.26 2.32 2.34 2.31 2.04 1.65 1.51 1.30 1.12 1.08 1.09 1.08 1.09 1.16 1.27
1.77 1.73 1.60 1.46 1.44 1.31 1.28 1.44 1.43 1.44 1.47 1.39 1.28 1.31 1.39 1.54 1.64 1.72 2.04 2.27 2.19 2.15 1.91 1.82 1.80 1.94 2.11 1.90 1.62 1.51 1.46 1.32 1.15 1.12 1.10 1.07 1.12 1.07
1.77 1.71 1.65 1.52 1.31 1.26 1.20 1.26 1.34 1.33 1.39 1.43 1.38 1.34 1.43 1.55 1.50 1.48 1.64 1.87 1.97 1.81 1.65 1.74 1.65 1.59 1.61 1.56 1.44 1.30 1.33 1.45 1.40 1.27 1.21 1.20 1.22 1.21
1.91 1.87 1.78 1.56 1.31 1.22 1.14 1.14 1.13 1.04 1.07 1.25 1.30 1.27 1.31 1.43 1.49 1.47 1.54 1.61 1.69 1.62 1.61 1.72 1.75 1.70 1.60 1.45 1.32 1.18 1.14 1.25 1.40 1.60 1.69 1.69 1.55 1.50
1.90 1.96 1.70 1.45 1.28 1.13 1.13 1.13 1.02 0.92 1.03 1.12 1.14 1.14 1.16 1.28 1.50 1.65 1.71 1.73 1.68 1.50 1.37 1.41 1.52 1.68 1.70 1.48 1.27 1.17 1.16 1.22 1.34 1.54 1.69 1.80 1.85 1.85
1.70 1.78 1.64 1.46 1.30 1.17 1.12 1.09 1.02 1.06 1.15 1.16 1.18 1.24 1.27 1.35 1.45 1.53 1.63 1.69 1.67 1.46 1.33 1.31 1.38 1.58 1.63 1.47 1.35 1.25 1.24 1.31 1.34 1.53 1.78 1.89 1.92 1.96
1.73 1.73 1.70 1.55 1.42 1.32 1.29 1.32 1.36 1.35 1.28 1.29 1.33 1.35 1.34 1.34 1.39 1.44 1.52 1.58 1.54 1.35 1.23 1.31 1.40 1.58 1.61 1.58 1.48 1.28 1.26 1.25 1.27 1.46 1.75 1.85 1.88 1.92
1.62 1.58 1.67 1.65 1.57 1.49 1.45 1.46 1.46 1.41 1.36 1.38 1.37 1.36 1.34 1.32 1.35 1.38 1.40 1.41 1.39 1.31 1.24 1.22 1.39 1.65 1.74 1.54 1.25 1.17 1.17 1.14 1.20 1.43 1.59 1.63 1.53 1.52
1.41 1.44 1.54 1.59 1.55 1.51 1.46 1.43 1.39 1.43 1.46 1.40 1.35 1.36 1.35 1.33 1.35 1.38 1.39 1.42 1.39 1.35 1.33 1.37 1.45 1.54 1.58 1.38 1.13 0.96 1.08 1.15 1.25 1.36 1.47 1.46 1.35 1.33
1.24 1.30 1.36 1.43 1.46 1.48 1.49 1.49 1.42 1.43 1.45 1.45 1.41 1.40 1.41 1.35 1.35 1.35 1.32 1.34 1.42 1.46 1.47 1.42 1.38 1.36 1.36 1.37 1.32 1.16 1.03 1.21 1.35 1.35 1.34 1.40 1.36 1.32
1.13 1.17 1.21 1.24 1.29 1.35 1.37 1.42 1.41 1.39 1.39 1.42 1.38 1.37 1.40 1.41 1.40 1.39 1.40 1.43 1.44 1.47 1.45 1.30 1.27 1.44 1.60 1.70 1.57 1.35 1.32 1.32 1.41 1.45 1.46 1.52 1.49 1.44
1.12 1.15 1.12 1.12 1.16 1.23 1.30 1.37 1.39 1.40 1.43 1.42 1.40 1.40 1.39 1.41 1.40 1.42 1.45 1.49 1.50 1.50 1.48 1.51 1.62 1.72 1.77 1.72 1.57 1.53 1.63 1.63 1.60 1.56 1.47 1.45 1.40 1.31
1.07 1.05 1.03 1.05 1.09 1.16 1.24 1.29 1.35 1.42 1.41 1.41 1.44 1.42 1.37 1.38 1.38 1.42 1.42 1.44 1.50 1.59 1.70 1.72 1.70 1.66 1.65 1.70 1.68 1.63 1.60 1.69 1.76 1.70 1.53 1.41 1.27 1.13

GEFSNE_prec_meanprecacc_288.txt.gz
Total_Precipitation_Accumulation
2.71 2.90 2.87 2.70 2.71 2.86 3.05 3.25 3.29 3.08 2.99 2.87 2.54 2.41 2.40 2.37 2.46 2.33 2.43 2.36 1.92 1.66 1.60 1.60 1.58 1.57 1.64 1.80 2.04 2.35 2.57 2.67 2.82 3.04 3.38 3.75 4.12 4.47
2.97 3.02 2.89 2.64 2.79 2.84 2.96 3.24 3.50 3.54 3.26 2.85 2.61 2.50 2.50 2.24 2.24 2.05 2.11 2.03 1.72 1.56 1.46 1.42 1.36 1.32 1.31 1.38 1.51 1.78 1.99 2.16 2.34 2.46 2.62 2.83 3.11 3.38
2.89 2.81 2.72 2.75 2.91 2.85 2.99 3.15 3.38 3.61 3.32 2.96 2.80 2.75 2.75 2.57 2.39 2.09 1.85 1.73 1.61 1.67 1.51 1.35 1.28 1.25 1.29 1.36 1.42 1.53 1.70 1.90 2.08 2.22 2.38 2.56 2.68 2.79
2.80 2.77 2.67 2.80 2.90 2.88 2.96 2.95 3.02 3.31 3.20 2.98 2.92 2.94 2.84 2.63 2.50 2.31 1.94 1.76 1.77 1.86 1.68 1.49 1.38 1.34 1.31 1.30 1.39 1.48 1.59 1.73 1.87 1.96 2.01 2.06 2.21 2.45
2.75 2.67 2.57 2.67 2.63 2.69 2.72 2.72 2.71 2.80 2.99 2.90 2.81 2.88 2.80 2.62 2.54 2.36 2.24 2.32 2.09 1.92 1.77 1.60 1.49 1.42 1.40 1.32 1.34 1.44 1.55 1.60 1.61 1.74 1.87 1.96 2.01 2.07
2.44 2.37 2.39 2.53 2.64 2.63 2.54 2.52 2.58 2.71 2.80 2.83 2.81 2.89 2.91 2.91 2.79 2.62 2.61 2.54 2.35 1.90 1.82 1.62 1.49 1.38 1.31 1.22 1.24 1.40 1.55 1.62 1.65 1.62 1.69 1.79 1.88 1.97
2.23 2.07 2.11 2.43 2.59 2.55 2.35 2.45 2.52 2.58 2.65 2.77 2.83 2.93 3.01 3.20 3.00 2.69 2.56 2.60 2.45 2.21 2.04 1.81 1.65 1.53 1.47 1.41 1.35 1.36 1.40 1.51 1.62 1.73 1.85 1.94 1.99 2.03
1.99 1.93 1.93 2.01 2.05 2.09 2.08 2.09 2.16 2.23 2.44 2.73 2.82 2.82 2.79 2.88 2.96 2.85 2.74 2.68 2.62 2.51 2.53 2.42 2.07 1.98 1.86 1.70 1.58 1.34 1.20 1.26 1.41 1.53 1.78 2.03 2.26 2.33
1.95 2.02 1.75 1.58 1.71 1.74 1.87 1.86 1.79 1.88 2.03 2.29 2.48 2.48 2.58 2.58 2.84 2.86 2.92 2.96 2.90 2.84 2.83 2.88 2.53 2.20 1.94 1.83 1.74 1.39 1.23 1.18 1.24 1.34 1.47 1.69 1.99 2.30
1.84 1.86 1.82 1.69 1.65 1.76 1.84 1.77 1.62 1.59 1.59 1.57 1.79 2.07 2.31 2.55 2.61 2.67 2.79 2.88 2.90 2.73 2.65 2.72 2.55 2.41 2.08 1.78 1.64 1.44 1.26 1.13 1.10 1.17 1.20 1.27 1.43 1.68
1.80 1.75 1.71 1.63 1.68 1.56 1.51 1.53 1.52 1.52 1.38 1.37 1.45 1.67 1.86 1.93 2.15 2.41 2.63 2.63 2.58 2.40 2.21 2.29 2.34 2.36 2.34 2.09 1.68 1.54 1.32 1.14 1.09 1.11 1.09 1.10 1.17 1.28
1.79 1.74 1.62 1.47 1.46 1.32 1.30 1.45 1.45 1.45 1.48 1.40 1.30 1.34 1.43 1.58 1.68 1.76 2.07 2.30 2.22 2.17 1.94 1.85 1.83 1.96 2.14 1.94 1.66 1.56 1.50 1.35 1.18 1.15 1.13 1.09 1.14 1.09
1.79 1.73 1.66 1.53 1.33 1.28 1.22 1.27 1.35 1.34 1.40 1.44 1.40 1.37 1.46 1.59 1.55 1.53 1.69 1.91 1.99 1.83 1.68 1.77 1.68 1.62 1.64 1.59 1.47 1.35 1.38 1.49 1.45 1.32 1.25 1.24 1.25 1.24
1.92 1.89 1.79 1.57 1.31 1.23 1.15 1.14 1.13 1.05 1.08 1.26 1.31 1.28 1.33 1.46 1.54 1.52 1.58 1.65 1.73 1.65 1.65 1.74 1.78 1.73 1.63 1.49 1.35 1.21 1.19 1.30 1.46 1.66 1.75 1.75 1.60 1.54
1.91 1.97 1.71 1.46 1.29 1.14 1.14 1.14 1.02 0.92 1.03 1.13 1.14 1.15 1.18 1.31 1.53 1.69 1.75 1.77 1.73 1.56 1.41 1.46 1.56 1.72 1.74 1.52 1.30 1.20 1.21 1.27 1.39 1.60 1.75 1.86 1.90 1.89
1.72 1.80 1.65 1.47 1.32 1.18 1.13 1.09 1.03 1.07 1.16 1.17 1.20 1.25 1.28 1.36 1.47 1.55 1.66 1.74 1.73 1.52 1.40 1.37 1.45 1.63 1.67 1.50 1.38 1.28 1.29 1.36 1.38 1.57 1.83 1.95 1.97 2.00
1.77 1.76 1.71 1.56 1.43 1.32 1.29 1.33 1.37 1.36 1.30 1.30 1.35 1.36 1.35 1.35 1.41 1.48 1.56 1.64 1.60 1.40 1.27 1.35 1.45 1.64 1.66 1.62 1.53 1.34 1.31 1.29 1.29 1.49 1.79 1.91 1.94 1.97
1.66 1.60 1.69 1.67 1.58 1.50 1.46 1.47 1.47 1.43 1.39 1.40 1.38 1.37 1.35 1.34 1.38 1.42 1.45 1.46 1.43 1.35 1.28 1.26 1.44 1.71 1.82 1.61 1.31 1.23 1.21 1.16 1.22 1.45 1.62 1.68 1.59 1.57
1.44 1.45 1.56 1.61 1.56 1.52 1.47 1.44 1.40 1.45 1.49 1.43 1.37 1.39 1.39 1.37 1.40 1.44 1.44 1.46 1.42 1.39 1.36 1.41 1.49 1.59 1.64 1.45 1.19 1.01 1.12 1.18 1.28 1.38 1.49 1.50 1.41 1.40
1.26 1.31 1.38 1.45 1.47 1.49 1.50 1.50 1.45 1.46 1.48 1.47 1.43 1.43 1.44 1.39 1.39 1.39 1.35 1.37 1.46 1.49 1.51 1.45 1.42 1.41 1.41 1.43 1.37 1.21 1.08 1.26 1.40 1.38 1.36 1.42 1.39 1.36
1.14 1.19 1.23 1.26 1.31 1.38 1.39 1.44 1.44 1.42 1.42 1.45 1.40 1.40 1.44 1.44 1.44 1.42 1.42 1.45 1.46 1.50 1.48 1.34 1.31 1.48 1.63 1.75 1.60 1.38 1.35 1.36 1.45 1.49 1.50 1.55 1.51 1.46
1.14 1.18 1.14 1.15 1.20 1.27 1.33 1.40 1.43 1.44 1.47 1.46 1.44 1.44 1.43 1.45 1.44 1.45 1.48 1.51 1.52 1.52 1.51 1.55 1.65 1.75 1.80 1.75 1.60 1.56 1.65 1.66 1.65 1.62 1.52 1.49 1.42 1.31
1.10 1.09 1.07 1.08 1.12 1.20 1.26 1.32 1.39 1.46 1.45 1.45 1.49 1.47 1.41 1.41 1.41 1.45 1.44 1.46 1.51 1.61 1.72 1.74 1.72 1.69 1.68 1.72 1.71 1.66 1.63 1.72 1.80 1.75 1.58 1.46 1.32 1.17

GEFSNE_prec_meanprecacc_294.txt.gz
Total_Precipitation_Accumulation
2.75 2.94 2.91 2.73 2.74 2.88 3.08 3.29 3.34 3.13 3.03 2.90 2.56 2.43 2.44 2.40 2.48 2.35 2.46 2.37 1.93 1.69 1.63 1.62 1.60 1.59 1.66 1.81 2.05 2.36 2.58 2.68 2.83 3.06 3.40 3.78 4.14 4.49
2.99 3.06 2.93 2.68 2.82 2.87 2.99 3.28 3.54 3.60 3.31 2.88 2.64 2.52 2.53 2.27 2.28 2.09 2.15 2.05 1.74 1.58 1.48 1.45 1.39 1.33 1.33 1.39 1.52 1.79 1.99 2.17 2.35 2.46 2.63 2.84 3.12 3.39
2.92 2.83 2.75 2.78 2.94 2.88 3.03 3.19 3.42 3.66 3.37 3.00 2.83 2.77 2.78 2.60 2.43 2.14 1.89 1.78 1.65 1.69 1.53 1.38 1.30 1.26 1.30 1.37 1.43 1.54 1.71 1.91 2.08 2.22 2.39 2.57 2.69 2.80
2.83 2.80 2.69 2.81 2.92 2.90 2.99 2.98 3.07 3.38 3.27 3.03 2.96 2.98 2.87 2.68 2.55 2.37 2.00 1.82 1.85 1.90 1.70 1.52 1.40 1.36 1.32 1.31 1.40 1.48 1.59 1.73 1.87 1.96 2.01 2.06 2.22 2.46
2.79 2.71 2.59 2.69 2.64 2.71 2.75 2.75 2.75 2.88 3.08 2.97 2.86 2.93 2.84 2.69 2.60 2.43 2.31 2.40 2.19 2.01 1.84 1.67 1.52 1.45 1.41 1.34 1.35 1.45 1.55 1.60 1.61 1.74 1.87 1.96 2.01 2.08
2.46 2.40 2.42 2.55 2.66 2.65 2.56 2.54 2.62 2.76 2.87 2.91 2.88 2.95 2.97 2.98 2.86 2.68 2.66 2.59 2.40 1.94 1.87 1.66 1.52 1.40 1.32 1.24 1.25 1.41 1.56 1.63 1.66 1.63 1.69 1.79 1.89 1.98
2.24 2.08 2.12 2.45 2.61 2.58 2.37 2.47 2.55 2.61 2.70 2.82 2.87 2.98 3.05 3.26 3.07 2.76 2.62 2.65 2.49 2.24 2.07 1.84 1.68 1.54 1.48 1.43 1.36 1.36 1.41 1.52 1.62 1.74 1.86 1.94 1.99 2.04
2.01 1.95 1.94 2.02 2.06 2.10 2.10 2.12 2.19 2.26 2.48 2.76 2.84 2.85 2.82 2.92 3.02 2.92 2.81 2.75 2.68 2.55 2.57 2.45 2.10 2.01 1.88 1.72 1.60 1.35 1.20 1.26 1.42 1.54 1.79 2.04 2.27 2.34
1.98 2.04 1.76 1.58 1.72 1.75 1.89 1.88 1.83 1.92 2.07 2.33 2.52 2.53 2.64 2.65 2.91 2.94 3.00 3.03 2.96 2.88 2.86 2.91 2.55 2.23 1.95 1.84 1.75 1.40 1.24 1.19 1.25 1.36 1.48 1.70 2.00 2.31
1.86 1.88 1.83 1.70 1.66 1.78 1.86 1.80 1.65 1.62 1.62 1.60 1.82 2.12 2.38 2.63 2.68 2.75 2.87 2.94 2.94 2.77 2.69 2.75 2.58 2.42 2.09 1.80 1.66 1.44 1.26 1.13 1.11 1.17 1.20 1.28 1.44 1.68
1.81 1.76 1.72 1.64 1.70 1.58 1.53 1.54 1.55 1.54 1.40 1.39 1.48 1.70 1.91 1.98 2.20 2.46 2.68 2.67 2.62 2.43 2.24 2.32 2.36 2.38 2.36 2.10 1.70 1.55 1.33 1.14 1.09 1.11 1.10 1.11 1.18 1.29
1.80 1.75 1.63 1.48 1.47 1.36 1.32 1.46 1.47 1.47 1.49 1.42 1.32 1.36 1.44 1.61 1.72 1.80 2.12 2.34 2.26 2.21 1.97 1.87 1.85 1.99 2.16 1.95 1.68 1.59 1.52 1.37 1.20 1.16 1.14 1.11 1.16 1.10
1.81 1.73 1.66 1.54 1.34 1.30 1.25 1.29 1.36 1.36 1.44 1.48 1.43 1.39 1.49 1.61 1.58 1.56 1.73 1.96 2.04 1.87 1.71 1.80 1.70 1.65 1.67 1.61 1.50 1.38 1.41 1.52 1.48 1.35 1.28 1.27 1.27 1.26
1.93 1.89 1.80 1.58 1.33 1.26 1.18 1.15 1.14 1.07 1.09 1.27 1.33 1.30 1.35 1.47 1.55 1.54 1.61 1.68 1.77 1.69 1.69 1.78 1.80 1.76 1.67 1.53 1.39 1.24 1.23 1.34 1.49 1.68 1.78 1.79 1.64 1.58
1.93 1.99 1.73 1.48 1.32 1.16 1.15 1.15 1.04 0.94 1.03 1.13 1.15 1.16 1.19 1.32 1.54 1.71 1.77 1.80 1.76 1.59 1.45 1.49 1.60 1.76 1.79 1.57 1.34 1.23 1.24 1.32 1.44 1.64 1.78 1.88 1.93 1.94
1.75 1.83 1.69 1.52 1.36 1.21 1.14 1.10 1.03 1.08 1.17 1.18 1.21 1.27 1.30 1.38 1.49 1.58 1.69 1.78 1.77 1.57 1.44 1.42 1.51 1.71 1.74 1.55 1.42 1.33 1.33 1.39 1.41 1.62 1.88 1.98 1.99 2.02
1.82 1.81 1.77 1.62 1.47 1.35 1.30 1.33 1.38 1.38 1.32 1.32 1.37 1.39 1.38 1.38 1.44 1.51 1.59 1.67 1.65 1.47 1.36 1.43 1.53 1.71 1.72 1.67 1.57 1.37 1.35 1.33 1.33 1.53 1.83 1.95 1.98 2.00
1.72 1.66 1.75 1.72 1.62 1.53 1.48 1.48 1.48 1.44 1.40 1.42 1.40 1.39 1.38 1.37 1.41 1.46 1.48 1.49 1.49 1.43 1.36 1.35 1.52 1.77 1.87 1.67 1.35 1.27 1.26 1.21 1.27 1.49 1.66 1.72 1.63 1.62
1.49 1.50 1.60 1.64 1.59 1.55 1.49 1.46 1.41 1.46 1.50 1.44 1.39 1.41 1.42 1.41 1.44 1.47 1.47 1.49 1.47 1.44 1.43 1.49 1.56 1.65 1.69 1.50 1.25 1.06 1.17 1.24 1.33 1.42 1.53 1.53 1.43 1.42
1.29 1.34 1.40 1.47 1.50 1.52 1.52 1.52 1.47 1.48 1.50 1.49 1.45 1.46 1.47 1.43 1.43 1.43 1.39 1.41 1.51 1.54 1.56 1.50 1.47 1.46 1.47 1.49 1.43 1.25 1.13 1.33 1.46 1.44 1.40 1.46 1.42 1.38
1.16 1.20 1.24 1.28 1.33 1.39 1.41 1.46 1.47 1.46 1.46 1.48 1.43 1.42 1.47 1.48 1.47 1.46 1.46 1.49 1.51 1.55 1.53 1.39 1.35 1.52 1.68 1.79 1.64 1.42 1.40 1.41 1.50 1.53 1.53 1.58 1.54 1.48
1.16 1.20 1.17 1.17 1.21 1.29 1.35 1.43 1.46 1.47 1.50 1.49 1.48 1.47 1.48 1.50 1.49 1.49 1.52 1.55 1.56 1.55 1.54 1.57 1.67 1.77 1.82 1.78 1.64 1.60 1.69 1.69 1.68 1.65 1.55 1.52 1.45 1.34
1.12 1.11 1.09 1.10 1.14 1.21 1.29 1.35 1.41 1.49 1.48 1.48 1.53 1.51 1.46 1.46 1.45 1.49 1.49 1.50 1.55 1.63 1.74 1.76 1.73 1.70 1.69 1.75 1.75 1.70 1.67 1.76 1.83 1.79 1.61 1.48 1.34 1.19

GEFSNE_prec_meanprecacc_300.txt.gz
Total_Precipitation_Accumulation
2.81 3.01 2.97 2.77 2.77 2.89 3.12 3.35 3.41 3.20 3.08 2.95 2.59 2.46 2.49 2.49 2.56 2.38 2.49 2.40 1.95 1.70 1.65 1.64 1.61 1.62 1.70 1.84 2.07 2.38 2.59 2.70 2.84 3.08 3.42 3.79 4.15 4.50
3.06 3.13 2.99 2.71 2.85 2.89 3.01 3.32 3.59 3.65 3.36 2.92 2.68 2.56 2.59 2.38 2.38 2.15 2.19 2.09 1.76 1.59 1.49 1.46 1.41 1.36 1.35 1.42 1.55 1.81 2.02 2.19 2.37 2.49 2.65 2.87 3.14 3.41
2.98 2.90 2.81 2.84 3.00 2.92 3.06 3.22 3.45 3.70 3.41 3.03 2.88 2.82 2.85 2.70 2.52 2.21 1.93 1.81 1.67 1.71 1.54 1.39 1.33 1.29 1.33 1.40 1.47 1.57 1.74 1.94 2.11 2.25 2.41 2.59 2.70 2.81
2.89 2.88 2.75 2.88 2.98 2.96 3.04 3.02 3.11 3.44 3.32 3.08 3.01 3.04 2.94 2.75 2.63 2.44 2.06 1.87 1.88 1.95 1.72 1.54 1.43 1.39 1.35 1.35 1.44 1.52 1.63 1.76 1.90 1.98 2.03 2.08 2.23 2.46
2.85 2.78 2.65 2.75 2.69 2.76 2.80 2.82 2.82 2.94 3.14 3.03 2.92 2.99 2.91 2.76 2.68 2.51 2.40 2.48 2.25 2.06 1.89 1.70 1.56 1.48 1.44 1.36 1.39 1.49 1.59 1.63 1.63 1.75 1.88 1.97 2.02 2.08
2.51 2.44 2.47 2.60 2.70 2.71 2.61 2.60 2.68 2.82 2.92 2.97 2.94 3.02 3.03 3.04 2.93 2.76 2.75 2.69 2.50 2.02 1.93 1.71 1.57 1.44 1.36 1.28 1.30 1.45 1.58 1.65 1.68 1.64 1.70 1.79 1.89 1.98
2.28 2.11 2.15 2.48 2.64 2.62 2.41 2.52 2.60 2.66 2.74 2.88 2.92 3.02 3.10 3.32 3.13 2.83 2.69 2.75 2.59 2.32 2.13 1.88 1.72 1.59 1.53 1.46 1.39 1.39 1.42 1.53 1.64 1.76 1.87 1.95 2.00 2.04
2.05 1.98 1.97 2.05 2.08 2.13 2.14 2.17 2.24 2.31 2.52 2.82 2.91 2.90 2.88 2.98 3.11 3.02 2.91 2.82 2.73 2.60 2.63 2.50 2.13 2.05 1.92 1.75 1.62 1.37 1.22 1.28 1.43 1.56 1.81 2.05 2.28 2.34
2.00 2.07 1.78 1.59 1.74 1.77 1.92 1.92 1.86 1.96 2.10 2.38 2.57 2.60 2.71 2.72 3.00 3.04 3.10 3.10 3.01 2.94 2.92 2.95 2.59 2.26 1.98 1.87 1.79 1.43 1.26 1.21 1.26 1.37 1.49 1.71 2.01 2.31
1.87 1.91 1.86 1.73 1.69 1.81 1.91 1.86 1.71 1.67 1.67 1.64 1.86 2.15 2.42 2.70 2.76 2.83 2.98 3.05 3.05 2.87 2.76 2.81 2.63 2.47 2.12 1.83 1.69 1.48 1.29 1.16 1.14 1.20 1.22 1.29 1.45 1.69
1.82 1.77 1.73 1.66 1.73 1.61 1.58 1.61 1.62 1.60 1.43 1.43 1.52 1.74 1.96 2.05 2.27 2.53 2.77 2.76 2.70 2.51 2.31 2.38 2.40 2.41 2.39 2.14 1.74 1.60 1.37 1.18 1.14 1.15 1.12 1.12 1.19 1.30
1.81 1.76 1.64 1.49 1.49 1.38 1.35 1.50 1.50 1.50 1.55 1.49 1.40 1.42 1.49 1.65 1.75 1.84 2.17 2.40 2.32 2.26 2.02 1.92 1.90 2.03 2.20 1.99 1.72 1.63 1.58 1.43 1.25 1.18 1.16 1.12 1.17 1.12
1.82 1.74 1.67 1.55 1.35 1.32 1.27 1.31 1.39 1.41 1.50 1.56 1.51 1.44 1.52 1.64 1.60 1.58 1.76 2.01 2.10 1.94 1.79 1.88 1.77 1.72 1.73 1.68 1.57 1.45 1.48 1.59 1.52 1.37 1.30 1.28 1.29 1.27
1.96 1.92 1.83 1.61 1.36 1.28 1.19 1.17 1.16 1.10 1.12 1.31 1.37 1.33 1.38 1.50 1.58 1.57 1.64 1.72 1.83 1.79 1.81 1.91 1.91 1.86 1.76 1.63 1.50 1.35 1.31 1.40 1.53 1.72 1.81 1.81 1.65 1.59
1.96 2.03 1.77 1.51 1.35 1.18 1.17 1.17 1.06 0.96 1.06 1.15 1.17 1.19 1.22 1.34 1.57 1.74 1.82 1.87 1.85 1.68 1.54 1.59 1.69 1.85 1.90 1.68 1.44 1.33 1.32 1.37 1.48 1.68 1.81 1.90 1.94 1.95
1.77 1.86 1.71 1.54 1.38 1.23 1.16 1.12 1.05 1.09 1.20 1.21 1.23 1.30 1.34 1.42 1.54 1.62 1.74 1.85 1.83 1.63 1.53 1.51 1.60 1.80 1.81 1.61 1.48 1.40 1.40 1.45 1.46 1.65 1.90 2.00 2.01 2.04
1.84 1.83 1.79 1.64 1.50 1.37 1.33 1.36 1.40 1.40 1.35 1.35 1.40 1.42 1.41 1.42 1.47 1.55 1.66 1.75 1.73 1.55 1.44 1.52 1.60 1.79 1.79 1.73 1.62 1.43 1.42 1.39 1.38 1.57 1.87 1.99 2.01 2.03
1.74 1.68 1.76 1.74 1.64 1.55 1.50 1.51 1.52 1.48 1.44 1.46 1.44 1.43 1.41 1.41 1.45 1.51 1.54 1.55 1.56 1.52 1.44 1.42 1.59 1.83 1.92 1.70 1.38 1.31 1.30 1.25 1.32 1.55 1.72 1.78 1.67 1.65
1.51 1.52 1.62 1.67 1.61 1.58 1.52 1.50 1.45 1.50 1.55 1.49 1.44 1.46 1.46 1.45 1.48 1.52 1.52 1.54 1.52 1.49 1.49 1.55 1.63 1.70 1.73 1.53 1.27 1.09 1.20 1.28 1.39 1.48 1.59 1.59 1.47 1.45
1.34 1.38 1.43 1.50 1.53 1.56 1.57 1.57 1.51 1.52 1.55 1.55 1.51 1.50 1.51 1.47 1.48 1.48 1.44 1.46 1.56 1.61 1.63 1.56 1.52 1.50 1.50 1.52 1.46 1.27 1.16 1.37 1.51 1.49 1.46 1.51 1.48 1.44
1.19 1.23 1.27 1.30 1.36 1.42 1.44 1.50 1.51 1.50 1.50 1.54 1.50 1.49 1.53 1.53 1.53 1.51 1.51 1.55 1.57 1.60 1.59 1.46 1.42 1.57 1.72 1.83 1.68 1.46 1.42 1.44 1.55 1.59 1.60 1.66 1.60 1.53
1.18 1.22 1.19 1.19 1.24 1.32 1.40 1.48 1.51 1.53 1.55 1.55 1.54 1.55 1.56 1.58 1.57 1.57 1.59 1.61 1.62 1.61 1.59 1.62 1.72 1.83 1.88 1.84 1.69 1.65 1.74 1.73 1.71 1.69 1.59 1.57 1.50 1.38
1.14 1.14 1.12 1.13 1.16 1.24 1.33 1.40 1.47 1.54 1.53 1.54 1.60 1.59 1.53 1.53 1.53 1.56 1.56 1.59 1.64 1.72 1.82 1.83 1.79 1.75 1.74 1.80 1.82 1.76 1.73 1.81 1.87 1.82 1.64 1.52 1.38 1.22

GEFSNE_prec_meanprecacc_306.txt.gz
Total_Precipitation_Accumulation
2.85 3.06 3.02 2.82 2.81 2.93 3.17 3.43 3.49 3.27 3.14 2.96 2.61 2.48 2.52 2.52 2.63 2.50 2.56 2.45 1.99 1.74 1.68 1.66 1.64 1.65 1.74 1.88 2.11 2.40 2.61 2.71 2.85 3.08 3.42 3.80 4.16 4.51
3.09 3.17 3.03 2.77 2.90 2.92 3.04 3.38 3.68 3.75 3.43 2.94 2.69 2.57 2.63 2.42 2.44 2.22 2.26 2.14 1.80 1.61 1.51 1.48 1.42 1.37 1.38 1.45 1.58 1.83 2.03 2.21 2.38 2.49 2.66 2.87 3.15 3.42
3.01 2.94 2.86 2.90 3.04 2.94 3.08 3.26 3.51 3.76 3.46 3.06 2.89 2.84 2.88 2.75 2.58 2.26 1.99 1.86 1.70 1.75 1.57 1.41 1.33 1.30 1.35 1.42 1.48 1.59 1.75 1.95 2.12 2.27 2.42 2.60 2.72 2.83
2.93 2.92 2.79 2.91 3.01 2.97 3.05 3.04 3.15 3.48 3.37 3.11 3.03 3.07 2.97 2.80 2.69 2.53 2.15 1.93 1.93 1.99 1.75 1.57 1.45 1.40 1.36 1.36 1.45 1.53 1.64 1.78 1.92 2.01 2.06 2.10 2.26 2.49
2.88 2.81 2.67 2.78 2.70 2.77 2.82 2.83 2.84 2.97 3.18 3.06 2.94 3.02 2.94 2.80 2.75 2.62 2.51 2.57 2.32 2.11 1.92 1.72 1.58 1.50 1.45 1.38 1.41 1.50 1.60 1.66 1.67 1.79 1.92 2.00 2.04 2.11
2.54 2.47 2.48 2.62 2.72 2.72 2.63 2.61 2.69 2.84 2.96 3.00 2.95 3.04 3.06 3.08 2.99 2.84 2.84 2.78 2.58 2.09 1.98 1.75 1.60 1.47 1.40 1.32 1.34 1.50 1.64 1.70 1.72 1.69 1.75 1.84 1.93 2.01
2.30 2.13 2.16 2.50 2.65 2.63 2.42 2.53 2.61 2.67 2.76 2.90 2.94 3.04 3.12 3.35 3.17 2.89 2.78 2.84 2.68 2.40 2.19 1.93 1.76 1.63 1.56 1.50 1.44 1.44 1.48 1.58 1.69 1.80 1.92 2.01 2.05 2.09
2.06 1.99 1.98 2.06 2.09 2.14 2.16 2.18 2.25 2.33 2.54 2.85 2.93 2.93 2.90 3.01 3.14 3.07 2.99 2.90 2.79 2.66 2.67 2.54 2.18 2.10 1.97 1.79 1.67 1.41 1.26 1.31 1.46 1.60 1.85 2.10 2.33 2.39
2.02 2.08 1.79 1.60 1.75 1.77 1.93 1.93 1.88 1.99 2.14 2.41 2.59 2.62 2.73 2.75 3.05 3.10 3.16 3.16 3.08 3.00 2.99 3.00 2.64 2.32 2.04 1.92 1.84 1.48 1.30 1.23 1.29 1.40 1.53 1.75 2.05 2.36
1.89 1.93 1.87 1.74 1.70 1.82 1.93 1.88 1.73 1.69 1.70 1.67 1.88 2.17 2.44 2.73 2.82 2.91 3.05 3.13 3.12 2.95 2.85 2.89 2.69 2.53 2.18 1.89 1.76 1.54 1.34 1.21 1.17 1.24 1.26 1.33 1.49 1.72
1.86 1.80 1.74 1.67 1.75 1.64 1.60 1.62 1.64 1.62 1.46 1.47 1.55 1.76 2.00 2.11 2.34 2.60 2.83 2.83 2.77 2.58 2.39 2.45 2.47 2.47 2.44 2.19 1.80 1.68 1.45 1.26 1.20 1.21 1.19 1.18 1.24 1.34
1.86 1.79 1.66 1.51 1.51 1.42 1.38 1.51 1.52 1.52 1.58 1.54 1.44 1.45 1.52 1.69 1.81 1.89 2.21 2.44 2.36 2.30 2.05 1.97 1.94 2.08 2.25 2.04 1.77 1.69 1.64 1.50 1.33 1.27 1.24 1.19 1.22 1.15
1.88 1.78 1.70 1.58 1.39 1.35 1.30 1.33 1.40 1.43 1.52 1.59 1.55 1.48 1.55 1.67 1.64 1.61 1.79 2.06 2.16 1.98 1.82 1.95 1.84 1.79 1.79 1.72 1.61 1.49 1.52 1.65 1.60 1.45 1.36 1.32 1.32 1.29
2.00 1.96 1.86 1.66 1.42 1.34 1.24 1.20 1.19 1.12 1.14 1.32 1.39 1.36 1.41 1.53 1.60 1.60 1.68 1.75 1.88 1.84 1.86 1.98 1.99 1.93 1.81 1.66 1.53 1.39 1.35 1.45 1.58 1.76 1.85 1.85 1.69 1.62
2.00 2.08 1.81 1.58 1.42 1.25 1.23 1.22 1.10 0.99 1.08 1.17 1.19 1.20 1.23 1.36 1.59 1.77 1.84 1.90 1.88 1.72 1.58 1.64 1.76 1.92 1.97 1.72 1.47 1.36 1.35 1.40 1.51 1.72 1.85 1.94 1.98 1.99
1.82 1.91 1.77 1.61 1.46 1.30 1.23 1.18 1.09 1.12 1.22 1.23 1.25 1.31 1.35 1.44 1.55 1.64 1.77 1.88 1.88 1.67 1.57 1.57 1.67 1.88 1.88 1.66 1.52 1.43 1.45 1.51 1.51 1.70 1.95 2.04 2.04 2.07
1.92 1.91 1.87 1.72 1.58 1.44 1.38 1.40 1.43 1.43 1.37 1.37 1.42 1.43 1.42 1.43 1.49 1.57 1.68 1.79 1.76 1.59 1.48 1.57 1.67 1.86 1.87 1.80 1.70 1.49 1.48 1.45 1.43 1.61 1.90 2.01 2.03 2.05
1.86 1.78 1.86 1.82 1.70 1.59 1.52 1.53 1.53 1.49 1.45 1.47 1.46 1.45 1.43 1.43 1.48 1.53 1.57 1.57 1.59 1.56 1.51 1.50 1.69 1.91 1.99 1.77 1.44 1.36 1.35 1.29 1.35 1.58 1.75 1.80 1.69 1.67
1.57 1.58 1.68 1.72 1.66 1.60 1.54 1.51 1.47 1.51 1.56 1.51 1.46 1.49 1.50 1.49 1.52 1.55 1.55 1.57 1.55 1.53 1.53 1.60 1.69 1.78 1.80 1.58 1.31 1.13 1.25 1.31 1.42 1.52 1.62 1.62 1.49 1.47
1.38 1.43 1.49 1.55 1.57 1.59 1.60 1.59 1.54 1.54 1.57 1.57 1.54 1.54 1.55 1.51 1.52 1.52 1.47 1.50 1.60 1.65 1.66 1.59 1.56 1.55 1.56 1.58 1.51 1.31 1.20 1.40 1.55 1.52 1.48 1.54 1.50 1.47
1.23 1.28 1.31 1.34 1.38 1.45 1.47 1.53 1.54 1.52 1.53 1.58 1.54 1.53 1.57 1.57 1.58 1.56 1.54 1.58 1.60 1.64 1.63 1.50 1.48 1.66 1.80 1.89 1.73 1.49 1.45 1.48 1.59 1.64 1.65 1.70 1.65 1.58
1.23 1.27 1.23 1.23 1.27 1.36 1.44 1.52 1.55 1.56 1.58 1.58 1.57 1.59 1.61 1.64 1.63 1.63 1.64 1.65 1.65 1.64 1.63 1.66 1.78 1.91 1.99 1.95 1.76 1.69 1.77 1.76 1.76 1.73 1.64 1.62 1.55 1.42
1.19 1.18 1.16 1.16 1.20 1.28 1.36 1.43 1.51 1.58 1.58 1.60 1.67 1.65 1.58 1.58 1.58 1.62 1.62 1.64 1.69 1.77 1.86 1.87 1.84 1.82 1.81 1.87 1.88 1.82 1.78 1.85 1.92 1.87 1.69 1.56 1.42 1.26